[[{"header":{"parameterUnit":"m.s-1","parameterCategory":1,"la1":30.2991,"la2":30.254,"lo1":-89.0895,"lo2":-89.0444,"dy":0.0017,"dx":0.0017,"nx":28,"ny":28,"refTime":"2023-09-29T09:00:00:Z","depth":0,"parameterNumber":2,"parameterNumberName":"U-component_of_WINDS"},"data":[0,0,0,0,0,0,0,0,0,0,0,0,0,0,0,0,0,0,0,0,0,0,0,0,0,0,0,0,0,0,0,0,0,0,0,0,0,0,0,0,0,0,0,0,0,0,0,0,0,0,0,0,0,0,0,0,0,0,-5.1454,-5.1454,0,-5.1453,-5.1453,-5.1453,-5.1294,-5.1289,-5.1285,-5.1281,-5.1281,-5.1285,-5.1289,0,0,0,0,0,0,0,0,0,0,0,0,0,-5.1315,-5.1319,-5.1454,-5.1454,-5.1454,-5.1453,-5.1453,-5.1453,-5.1294,-5.1289,-5.1284,-5.1279,-5.128,-5.1284,-5.1289,0,0,0,0,0,0,0,0,0,0,0,0,0,-5.1351,-5.132,-5.1454,-5.1374,-5.1367,-5.1453,-5.1453,-5.1453,-5.1295,-5.1289,-5.1283,-5.1277,-5.1278,-5.1284,-5.129,-5.1452,0,0,-5.1308,-5.131,0,0,0,0,0,0,0,0,-5.135,-5.1357,-5.1386,-5.138,-5.1372,-5.1367,-5.1404,-5.1453,-5.1297,-5.1323,-5.1281,-5.1274,-5.1315,-5.1317,-5.1331,-5.1452,-5.1452,-5.1308,-5.1312,-5.1314,-5.1316,0,0,0,0,0,0,0,-5.1347,-5.1356,-5.1453,-5.1386,-5.1378,-5.1338,-5.1336,-5.1413,-5.1354,-5.132,-5.1308,-5.131,-5.131,-5.1326,-5.133,-5.1452,-5.1308,-5.1313,-5.1317,-5.1319,-5.1705,-5.1712,0,0,0,0,0,0,-5.1356,-5.1355,-5.1453,-5.1453,-5.1345,-5.1346,-5.1344,-5.1375,-5.1353,-5.1343,-5.1316,-5.1303,-5.1319,-5.1323,-5.1329,-5.1517,-5.1314,-5.132,-5.1323,-5.1699,-5.1707,-5.1714,0,0,0,0,0,0,-5.1353,-5.1366,-5.1453,-5.1401,-5.1409,-5.1355,-5.1391,-5.1378,-5.1394,-5.135,-5.1338,-5.1343,-5.1314,-5.1321,-5.1422,-5.1515,-5.1322,-5.1328,-5.1691,-5.1701,-5.171,-5.1895,0,0,0,0,0,0,-5.135,-5.1366,-5.1427,-5.1403,-5.1412,-5.1547,-5.1397,-5.1383,-5.1405,-5.1388,-5.1372,-5.1364,-5.131,-5.1415,-5.1428,-5.1519,-5.1332,-5.1682,-5.1695,-5.1707,-5.188,-5.191,-5.1935,0,0,0,0,0,-5.1346,-5.1479,-5.1431,-5.1444,-5.1488,-5.1553,-5.1558,-5.1493,-5.1413,-5.1474,-5.1445,-5.1364,-5.1503,-5.1426,-5.144,-5.1535,-5.1676,-5.1691,-5.1706,-5.1868,-5.1904,-5.1934,0,0,0,0,0,0,-5.1515,-5.1475,-5.1421,-5.1551,-5.1557,-5.1526,-5.1601,-5.1534,-5.1562,-5.1546,-5.1464,-5.1462,-5.1576,-5.1565,-5.1481,-5.169,-5.1575,-5.1594,-5.1693,-5.1727,-5.1754,-5.1754,-5.1337,0,0,0,0,0,-5.1568,-5.1624,-5.1586,-5.1704,-5.171,-5.1656,-5.1681,-5.1631,-5.1633,-5.1635,-5.1614,-5.1619,-5.1664,-5.1695,-5.1733,-5.1878,-5.1872,-5.195,-5.1977,-5.2,-5.2017,-5.2092,-5.2126,-5.1764,-5.1764,-5.1763,0,0,-5.1677,-5.1662,-5.1702,-5.1738,-5.1736,-5.1796,-5.1658,-5.1728,-5.1771,-5.1645,-5.1739,-5.1725,-5.1725,-5.1849,-5.1903,-5.1844,-5.2116,-5.202,-5.2038,-5.2042,-5.2111,-5.2146,-5.2176,-5.1774,-5.1772,-5.1771,0,0,-5.1906,-5.1901,-5.1998,-5.2,-5.1999,-5.1962,-5.1986,-5.1966,-5.1951,-5.2044,-5.1951,-5.2002,-5.208,-5.2084,-5.2097,-5.2328,-5.2255,-5.2343,-5.2487,-5.2561,-5.259,-5.2615,-5.2697,-5.2727,-5.2361,-5.2361,-5.2361,0,-5.2041,-5.2128,-5.2057,-5.2133,-5.2151,-5.204,-5.2138,-5.2143,-5.2155,-5.217,-5.2104,-5.2201,-5.2193,-5.2316,-5.2373,-5.2387,-5.2411,-5.2344,-5.2592,-5.2616,-5.2638,-5.2715,-5.2746,-5.2372,-5.237,-5.2369,-5.2368,0,-5.2294,-5.2356,-5.2435,-5.245,-5.2477,-5.2564,-5.2505,-5.2541,-5.2489,-5.2459,-5.2556,-5.2543,-5.2577,-5.2603,-5.2553,-5.2719,-5.2682,-5.2606,-5.2488,-5.2684,-5.2755,-5.2784,-5.2387,-5.2383,-5.238,-5.2377,0,0,-5.2629,-5.2604,-5.2634,-5.2639,-5.2631,-5.2677,-5.2759,-5.2792,-5.2824,-5.2837,-5.2903,-5.2972,-5.2901,-5.2915,-5.2865,-5.293,-5.3114,-5.2845,-5.2843,-5.2894,-5.3295,-5.3353,-5.3388,-5.3065,-5.307,-5.3075,-5.3295,0,-5.285,-5.2988,-5.2927,-5.3071,-5.3127,-5.3023,-5.3094,-5.3096,-5.3071,-5.3114,-5.3085,-5.3136,-5.3038,-5.3046,-5.3106,-5.3079,-5.3193,-5.3062,-5.3125,-5.3128,-5.3127,-5.3425,-5.3486,-5.3694,-5.3322,-5.3327,-5.333,0,-5.3127,-5.3151,-5.3301,-5.3282,-5.3303,-5.3368,-5.3393,-5.3437,-5.3437,-5.3414,-5.3431,-5.3365,-5.3444,-5.3328,-5.3435,-5.3347,-5.337,-5.336,-5.3366,-5.3369,-5.3241,-5.3435,-5.3759,-5.3791,-5.3374,-5.337,-5.3367,0,-5.3355,-5.3425,-5.3523,-5.3531,-5.3512,-5.356,-5.3555,-5.3549,-5.3573,-5.3595,-5.361,-5.3642,-5.3659,-5.3685,-5.363,-5.3551,-5.3744,-5.3624,-5.3727,-5.3728,-5.3771,-5.3769,-5.4103,-5.3788,-5.3787,-5.3787,-5.3786,0,-5.3608,-5.3704,-5.3626,-5.3686,-5.379,-5.3719,-5.3824,-5.3807,-5.3803,-5.3858,-5.377,-5.3824,-5.3748,-5.3795,-5.3752,-5.3847,-5.3855,-5.3838,-5.3826,-5.3846,-5.3848,-5.3858,-5.3842,-5.3795,-5.3793,-5.3792,-5.379,0,-5.388,-5.3832,-5.3932,-5.3906,-5.3902,-5.398,-5.3957,-5.4012,-5.398,-5.4052,-5.4064,-5.4015,-5.4065,-5.4013,-5.4059,-5.403,-5.4158,-5.4124,-5.4158,-5.4148,-5.4253,-5.4244,-5.4605,-5.4648,-5.4307,-5.431,-5.4313,0,-5.4044,-5.4115,-5.4097,-5.4127,-5.4127,-5.4178,-5.4202,-5.4135,-5.4163,-5.417,-5.4224,-5.4267,-5.4297,-5.4382,-5.435,-5.4385,-5.4351,-5.4475,-5.4356,-5.4374,-5.4352,-5.4348,-5.4355,-5.45,-5.4504,-5.4507,-5.451,0,-5.434,-5.4313,-5.435,-5.4381,-5.4412,-5.4433,-5.4446,-5.4477,-5.4407,-5.4443,-5.4493,-5.4517,-5.4565,-5.4608,-5.4634,-5.4627,-5.4558,-5.4548,-5.4573,-5.4594,-5.461,-5.4602,-5.4223,-5.454,-5.4537,-5.4534,-5.4533,-5.4532,-5.4562,-5.462,-5.4616,-5.4662,-5.4665,-5.468,-5.473,-5.4705,-5.4746,-5.4779,-5.4737,-5.4799,-5.4798,-5.4825,-5.4827,-5.4874,-5.4822,-5.4859,-5.4868,-5.4878,-5.4893,-5.4604,-5.4879,-5.4878,-5.4877,-5.4876,-5.4876,0,-5.4852,-5.4845,-5.4888,-5.491,-5.4945,-5.4877,-5.4888,-5.4923,-5.4978,-5.4983,-5.5015,-5.5073,-5.5114,-5.5087,-5.5122,-5.5165,-5.5134,-5.5177,-5.5172,-5.5172,-5.4939,-5.4913,-5.5201,-5.5201,-5.5201,-5.5201,-5.5201,-5.5201,-5.5008,-5.5102,-5.5075,-5.5171,-5.5162,-5.5222,-5.5234,-5.5248,-5.5251,-5.532,-5.5354,-5.5335,-5.5327,-5.5361,-5.5396,-5.5387,-5.5404,-5.5458,-5.5438,-5.522,-5.5188,-5.5158,-5.5133,-5.5463,-5.5463,-5.5666,-5.5668,-5.5669]},{"header":{"parameterUnit":"m.s-1","parameterCategory":1,"la1":30.2991,"la2":30.254,"lo1":-89.0895,"lo2":-89.0444,"dy":0.0017,"dx":0.0017,"nx":28,"ny":28,"refTime":"2023-09-29T09:00:00:Z","depth":0,"parameterNumber":3,"parameterNumberName":"V-component_of_WINDS"},"data":[0,0,0,0,0,0,0,0,0,0,0,0,0,0,0,0,0,0,0,0,0,0,0,0,0,0,0,0,0,0,0,0,0,0,0,0,0,0,0,0,0,0,0,0,0,0,0,0,0,0,0,0,0,0,0,0,0,0,-2.5429,-2.5429,0,-2.5464,-2.5464,-2.5465,-2.5427,-2.5426,-2.5424,-2.5423,-2.5457,-2.5459,-2.5461,0,0,0,0,0,0,0,0,0,0,0,0,0,-2.5326,-2.5328,-2.5429,-2.5429,-2.543,-2.5464,-2.5464,-2.5465,-2.5427,-2.5426,-2.5424,-2.5422,-2.5456,-2.5459,-2.5461,0,0,0,0,0,0,0,0,0,0,0,0,0,-2.5367,-2.5329,-2.5429,-2.5415,-2.5414,-2.5464,-2.5464,-2.5465,-2.5428,-2.5426,-2.5423,-2.5421,-2.5455,-2.5459,-2.5462,-2.5526,0,0,-2.5472,-2.5474,0,0,0,0,0,0,0,0,-2.5365,-2.5371,-2.5417,-2.5416,-2.5415,-2.5439,-2.544,-2.5485,-2.5428,-2.5423,-2.5423,-2.542,-2.5453,-2.5456,-2.5467,-2.5527,-2.5529,-2.5472,-2.5474,-2.5476,-2.5477,0,0,0,0,0,0,0,-2.5362,-2.5369,-2.5443,-2.5417,-2.5417,-2.5406,-2.541,-2.5449,-2.5449,-2.5423,-2.542,-2.5425,-2.5452,-2.5464,-2.5468,-2.5529,-2.5472,-2.5475,-2.5477,-2.5479,-2.564,-2.5643,0,0,0,0,0,0,-2.5361,-2.5367,-2.5441,-2.5444,-2.5384,-2.541,-2.5414,-2.5433,-2.5449,-2.5449,-2.5427,-2.5423,-2.5459,-2.5464,-2.5469,-2.5543,-2.5476,-2.5479,-2.5481,-2.5638,-2.5641,-2.5643,0,0,0,0,0,0,-2.5359,-2.5368,-2.544,-2.5404,-2.5413,-2.5414,-2.5436,-2.5435,-2.5448,-2.5452,-2.5451,-2.544,-2.5458,-2.5464,-2.5511,-2.5543,-2.5481,-2.5484,-2.5636,-2.5639,-2.5642,-2.5692,0,0,0,0,0,0,-2.5356,-2.5367,-2.5393,-2.5405,-2.5415,-2.5483,-2.5439,-2.5438,-2.5454,-2.5449,-2.5463,-2.5464,-2.5457,-2.5506,-2.5515,-2.5547,-2.5486,-2.5633,-2.5637,-2.5641,-2.5688,-2.5697,-2.5705,0,0,0,0,0,-2.5352,-2.5405,-2.5394,-2.5403,-2.5447,-2.5485,-2.5491,-2.5482,-2.5457,-2.5481,-2.5483,-2.5463,-2.5539,-2.5512,-2.5521,-2.5554,-2.5631,-2.5636,-2.5641,-2.5684,-2.5695,-2.5705,0,0,0,0,0,0,-2.5396,-2.5407,-2.5395,-2.5453,-2.5469,-2.5479,-2.551,-2.5494,-2.5517,-2.5512,-2.5499,-2.5503,-2.5552,-2.5558,-2.5528,-2.5615,-2.558,-2.5587,-2.561,-2.5621,-2.5629,-2.5626,-2.5489,0,0,0,0,0,-2.5413,-2.5444,-2.5451,-2.5503,-2.5511,-2.5509,-2.5526,-2.5517,-2.5532,-2.5539,-2.5544,-2.5559,-2.5586,-2.5604,-2.5629,-2.5688,-2.569,-2.5716,-2.5724,-2.5731,-2.5737,-2.5767,-2.5778,-2.566,-2.566,-2.566,0,0,-2.5448,-2.5457,-2.5478,-2.5512,-2.5523,-2.5554,-2.5515,-2.555,-2.5573,-2.5544,-2.5588,-2.5593,-2.5608,-2.5662,-2.5685,-2.5668,-2.577,-2.5738,-2.5743,-2.5746,-2.5774,-2.5785,-2.5795,-2.5664,-2.5663,-2.5663,0,0,-2.5526,-2.5537,-2.558,-2.5592,-2.5608,-2.5606,-2.5617,-2.5629,-2.5631,-2.5675,-2.5654,-2.568,-2.5727,-2.5738,-2.575,-2.5831,-2.5812,-2.5839,-2.5883,-2.5913,-2.5922,-2.593,-2.5957,-2.5967,-2.5845,-2.5845,-2.5845,0,-2.5567,-2.5614,-2.5604,-2.564,-2.5655,-2.563,-2.5672,-2.5684,-2.5708,-2.5718,-2.5698,-2.5755,-2.5764,-2.5818,-2.5838,-2.5849,-2.5858,-2.5837,-2.5922,-2.593,-2.5937,-2.5963,-2.5973,-2.5848,-2.5848,-2.5848,-2.5847,0,-2.5662,-2.5695,-2.5727,-2.5751,-2.5769,-2.5808,-2.5803,-2.5822,-2.5812,-2.5812,-2.5856,-2.5866,-2.5891,-2.5904,-2.5894,-2.5956,-2.5945,-2.5924,-2.5888,-2.5951,-2.5975,-2.5985,-2.5853,-2.5852,-2.5851,-2.585,0,0,-2.577,-2.5786,-2.5798,-2.5808,-2.5823,-2.5848,-2.5885,-2.591,-2.5926,-2.5943,-2.5973,-2.6012,-2.5992,-2.6006,-2.5997,-2.6023,-2.6084,-2.5998,-2.5998,-2.6012,-2.615,-2.6166,-2.6177,-2.6072,-2.6074,-2.6075,-2.6149,0,-2.5848,-2.5913,-2.5904,-2.5965,-2.5994,-2.597,-2.6002,-2.6014,-2.6015,-2.6039,-2.6038,-2.6066,-2.6038,-2.6046,-2.607,-2.6071,-2.6111,-2.6066,-2.6098,-2.6099,-2.6094,-2.619,-2.6207,-2.6275,-2.6158,-2.616,-2.6161,0,-2.5947,-2.5967,-2.6032,-2.6041,-2.6053,-2.6082,-2.6103,-2.6127,-2.6139,-2.6137,-2.6152,-2.6138,-2.6173,-2.6137,-2.6185,-2.6154,-2.6167,-2.6169,-2.6171,-2.6173,-2.6133,-2.6193,-2.6297,-2.6307,-2.6176,-2.6175,-2.6173,0,-2.6017,-2.6061,-2.6104,-2.6113,-2.6126,-2.6146,-2.6152,-2.6163,-2.6178,-2.6196,-2.6205,-2.6227,-2.6239,-2.6256,-2.6248,-2.6223,-2.6296,-2.626,-2.6295,-2.6295,-2.6311,-2.631,-2.6417,-2.6321,-2.6321,-2.632,-2.632,0,-2.6105,-2.6145,-2.6136,-2.6163,-2.6206,-2.6195,-2.6238,-2.6241,-2.625,-2.6276,-2.6256,-2.6281,-2.6269,-2.6292,-2.6286,-2.6326,-2.6331,-2.633,-2.6328,-2.6331,-2.6331,-2.6339,-2.6333,-2.6323,-2.6323,-2.6322,-2.6322,0,-2.619,-2.6186,-2.6232,-2.6239,-2.6242,-2.6274,-2.6279,-2.6304,-2.6302,-2.6335,-2.6342,-2.6339,-2.6365,-2.6359,-2.6388,-2.6383,-2.6432,-2.6425,-2.6428,-2.6426,-2.646,-2.6456,-2.6575,-2.6589,-2.6485,-2.6486,-2.6487,0,-2.6246,-2.6276,-2.6286,-2.6302,-2.631,-2.6336,-2.6351,-2.634,-2.6356,-2.6372,-2.6394,-2.6418,-2.6437,-2.648,-2.648,-2.6501,-2.6493,-2.6533,-2.6496,-2.6498,-2.6492,-2.649,-2.6492,-2.654,-2.6541,-2.6542,-2.6543,0,-2.6344,-2.634,-2.6362,-2.6384,-2.6402,-2.6418,-2.6432,-2.6446,-2.6436,-2.6455,-2.6482,-2.6496,-2.6525,-2.6549,-2.6568,-2.6573,-2.6556,-2.6555,-2.6563,-2.6567,-2.6567,-2.6566,-2.6447,-2.6552,-2.6551,-2.655,-2.655,-2.6549,-2.6415,-2.644,-2.6451,-2.6476,-2.6485,-2.6498,-2.6521,-2.6522,-2.6544,-2.6566,-2.6558,-2.6588,-2.6598,-2.6622,-2.6629,-2.6652,-2.6636,-2.665,-2.6653,-2.6656,-2.666,-2.6564,-2.6655,-2.6655,-2.6655,-2.6655,-2.6654,0,-2.6511,-2.6516,-2.6539,-2.656,-2.6579,-2.6561,-2.6575,-2.6592,-2.6619,-2.663,-2.6649,-2.6678,-2.6701,-2.6702,-2.6723,-2.674,-2.6733,-2.6746,-2.6744,-2.6745,-2.6673,-2.6662,-2.6751,-2.6751,-2.6751,-2.6751,-2.6751,-2.6751,-2.6563,-2.6604,-2.66,-2.6645,-2.6649,-2.6678,-2.6688,-2.6699,-2.6708,-2.6741,-2.676,-2.6761,-2.6767,-2.6788,-2.6808,-2.6807,-2.6815,-2.6831,-2.6828,-2.676,-2.675,-2.6741,-2.6731,-2.6833,-2.6833,-2.6898,-2.6899,-2.6899]}]]